Weather History for College Park, MD

Change the Weather History Date:

Saturday, November 24, 2012

  Actual Average Record
Temperature  
Mean Temperature 43 °F -  
Max Temperature 46 °F 54 °F 73 °F (1958)
Min Temperature 37 °F 35 °F 15 °F (1956)
Degree Days  
Heating Degree Days 22    
Moisture  
Dew Point 17 °F    
Average Humidity 39    
Maximum Humidity 45    
Minimum Humidity 33    
Precipitation  
Precipitation 0.00 in - - ()
Sea Level Pressure  
Sea Level Pressure 29.96 in    
Wind  
Wind Speed 12 mph (WNW)    
Max Wind Speed 20 mph    
Max Gust Speed 37 mph    
Visibility 10 miles    
Events      
Averages and records for this station are not official NWS values.
T = Trace of Precipitation, MM = Missing Value Source: NWS Daily Summary

Daily Weather History Graph

Daily Weather History Graph

Search for Another Location

Airport:

Trip Planner

Search our weather history database for the weather conditions in past years. The results will help you decide how hot, cold, wet, or windy it might be!

Date:

Astronomy

Nov. 24, 2012 Rise Set
Actual Time 7:00 AM EST 4:47 PM EST
Civil Twilight 6:31 AM EST 5:17 PM EST
Nautical Twilight 5:58 AM EST 5:49 PM EST
Astronomical Twilight 5:27 AM EST 6:21 PM EST
Moon 2:30 PM EST (11/24) 3:17 AM EST (11/24)
Length of Visible Light 10h 45m
Length of Day
9h 47m
Waxing Gibbous, 87% of the Moon is Illuminated
Nov 24
Waxing Gibbous
Nov 28
Full
Dec 6
Last Quarter
Dec 13
New
Dec 20
First Quarter

Hourly Weather History & Observations

Time (EST) Temp. Windchill Dew Point Humidity Pressure Visibility Wind Dir Wind Speed Gust Speed Precip Events Conditions
12:20 AM 49.3 °F - 24.4 °F 38% 29.83 in 10.0 mi NW 15.0 mph 23.0 mph N/A   Clear
12:45 AM 47.5 °F - 22.8 °F 38% 29.86 in 10.0 mi NW 17.3 mph 36.8 mph N/A   Scattered Clouds
1:05 AM 46.2 °F 40.1 °F 22.3 °F 39% 29.86 in 10.0 mi WNW 13.8 mph 27.6 mph N/A   Scattered Clouds
1:45 AM 44.2 °F 38.0 °F 21.2 °F 40% 29.87 in 10.0 mi WNW 12.7 mph 24.2 mph N/A   Scattered Clouds
2:10 AM 43.2 °F 35.9 °F 21.0 °F 41% 29.89 in 10.0 mi NW 15.0 mph 25.3 mph N/A   Overcast
2:50 AM 40.5 °F 32.1 °F 16.7 °F 38% 29.91 in 10.0 mi NW 16.1 mph 23.0 mph N/A   Scattered Clouds
3:10 AM 40.3 °F 33.0 °F 16.5 °F 38% 29.90 in 10.0 mi NW 12.7 mph 24.2 mph N/A   Clear
3:35 AM 39.6 °F 32.1 °F 15.8 °F 38% 29.91 in 10.0 mi NW 12.7 mph 19.6 mph N/A   Scattered Clouds
4:15 AM 39.2 °F 35.0 °F 15.6 °F 38% 29.91 in 10.0 mi NW 5.8 mph 19.6 mph N/A   Clear
4:35 AM 39.2 °F 33.6 °F 15.8 °F 39% 29.93 in 10.0 mi NNW 8.1 mph - N/A   Mostly Cloudy
5:00 AM 39.2 °F 34.2 °F 16.2 °F 39% 29.93 in 10.0 mi WNW 6.9 mph - N/A   Overcast
5:20 AM 39.2 °F 32.0 °F 16.3 °F 40% 29.94 in 10.0 mi WNW 11.5 mph 16.1 mph N/A   Overcast
5:40 AM 39.2 °F 31.6 °F 16.0 °F 39% 29.94 in 10.0 mi NW 12.7 mph 20.7 mph N/A   Overcast
6:00 AM 39.6 °F 31.7 °F 16.2 °F 39% 29.94 in 10.0 mi NW 13.8 mph 20.7 mph N/A   Overcast
6:25 AM 39.6 °F 31.3 °F 16.5 °F 39% 29.94 in 10.0 mi NW 15.0 mph 24.2 mph N/A   Overcast
6:45 AM 39.6 °F 31.0 °F 16.5 °F 39% 29.95 in 10.0 mi NW 16.1 mph 25.3 mph N/A   Overcast
7:05 AM 39.4 °F 32.3 °F 16.9 °F 40% 29.96 in 10.0 mi NW 11.5 mph 25.3 mph N/A   Overcast
7:25 AM 39.4 °F 30.4 °F 17.4 °F 41% 29.96 in 10.0 mi NW 17.3 mph 23.0 mph N/A   Overcast
7:50 AM 39.2 °F 33.6 °F 18.0 °F 42% 29.96 in 10.0 mi NW 8.1 mph 21.9 mph N/A   Overcast
8:10 AM 39.6 °F 34.0 °F 18.0 °F 42% 29.97 in 10.0 mi NW 8.1 mph 20.7 mph N/A   Overcast
8:30 AM 39.4 °F 31.4 °F 18.0 °F 42% 29.96 in 10.0 mi NW 13.8 mph 20.7 mph N/A   Overcast
8:50 AM 39.6 °F 31.7 °F 17.6 °F 41% 29.97 in 10.0 mi NW 13.8 mph 19.6 mph N/A   Overcast
9:15 AM 39.9 °F 32.5 °F 18.3 °F 42% 29.97 in 10.0 mi WNW 12.7 mph 26.5 mph N/A   Overcast
9:35 AM 40.1 °F 32.0 °F 18.1 °F 41% 29.98 in 10.0 mi NW 15.0 mph 23.0 mph N/A   Overcast
9:55 AM 40.3 °F 34.4 °F 18.1 °F 41% 29.98 in 10.0 mi NW 9.2 mph 19.6 mph N/A   Overcast
10:15 AM 40.6 °F 33.8 °F 18.3 °F 41% 29.97 in 10.0 mi NW 11.5 mph 20.7 mph N/A   Overcast
10:40 AM 41.0 °F 34.7 °F 18.0 °F 40% 29.98 in 10.0 mi NW 10.4 mph 20.7 mph N/A   Overcast
11:00 AM 41.2 °F 35.0 °F 17.8 °F 39% 29.97 in 10.0 mi WNW 10.4 mph 20.7 mph N/A   Overcast
11:20 AM 41.4 °F 32.7 °F 16.0 °F 36% 29.97 in 10.0 mi NW 18.4 mph 24.2 mph N/A   Overcast
11:40 AM 41.7 °F 35.2 °F 16.0 °F 35% 29.96 in 10.0 mi NW 11.5 mph 19.6 mph N/A   Overcast
12:05 PM 42.3 °F 33.6 °F 16.5 °F 35% 29.95 in 10.0 mi NW 19.6 mph - N/A   Overcast
12:25 PM 42.1 °F 34.2 °F 15.4 °F 34% 29.95 in 10.0 mi NW 16.1 mph 27.6 mph N/A   Overcast
12:45 PM 42.1 °F 35.7 °F 16.0 °F 35% 29.94 in 10.0 mi NW 11.5 mph 24.2 mph N/A   Mostly Cloudy
1:05 PM 42.3 °F 36.8 °F 16.2 °F 35% 29.94 in 10.0 mi NW 9.2 mph 20.7 mph N/A   Overcast
1:30 PM 42.4 °F 34.7 °F 16.3 °F 35% 29.93 in 10.0 mi WNW 16.1 mph 24.2 mph N/A   Mostly Cloudy
1:50 PM 43.3 °F 37.7 °F 16.3 °F 34% 29.94 in 10.0 mi WNW 10.4 mph 23.0 mph N/A   Overcast
2:10 PM 42.3 °F 35.5 °F 16.0 °F 35% 29.94 in 10.0 mi NW 12.7 mph 21.9 mph N/A   Overcast
2:30 PM 43.0 °F 35.4 °F 15.3 °F 33% 29.94 in 10.0 mi NW 16.1 mph 26.5 mph N/A   Overcast
2:55 PM 41.9 °F 34.3 °F 15.4 °F 34% 29.94 in 10.0 mi NW 15.0 mph 25.3 mph N/A   Overcast
3:15 PM 42.4 °F 35.3 °F 14.7 °F 33% 29.95 in 10.0 mi WNW 13.8 mph 21.9 mph N/A   Overcast
3:35 PM 42.1 °F 35.7 °F 14.5 °F 33% 29.95 in 10.0 mi WNW 11.5 mph 25.3 mph N/A   Overcast
3:55 PM 41.9 °F 35.9 °F 14.7 °F 33% 29.96 in 10.0 mi WNW 10.4 mph 20.7 mph N/A   Overcast
4:20 PM 41.5 °F 34.6 °F 15.3 °F 35% 29.96 in 10.0 mi WNW 12.7 mph 18.4 mph N/A   Overcast
4:40 PM 41.2 °F 34.1 °F 15.4 °F 35% 29.97 in 10.0 mi NW 12.7 mph 16.1 mph N/A   Overcast
5:00 PM 40.5 °F 32.5 °F 15.6 °F 37% 29.98 in 10.0 mi West 15.0 mph 21.9 mph N/A   Overcast
5:20 PM 40.1 °F 33.6 °F 15.8 °F 37% 29.99 in 10.0 mi West 10.4 mph 18.4 mph N/A   Scattered Clouds
6:05 PM 39.2 °F 34.2 °F 16.3 °F 40% 30.00 in 10.0 mi WNW 6.9 mph - N/A   Mostly Cloudy
6:25 PM 39.4 °F 33.8 °F 16.3 °F 39% 30.00 in 10.0 mi West 8.1 mph - N/A   Mostly Cloudy
6:45 PM 38.5 °F 33.4 °F 16.7 °F 41% 30.01 in 10.0 mi WNW 6.9 mph 18.4 mph N/A   Scattered Clouds
7:10 PM 38.5 °F 33.4 °F 16.3 °F 41% 30.01 in 10.0 mi West 6.9 mph 18.4 mph N/A   Clear
7:30 PM 37.8 °F 32.5 °F 16.7 °F 42% 30.01 in 10.0 mi West 6.9 mph - N/A   Clear
7:50 PM 37.6 °F 32.3 °F 17.4 °F 44% 30.02 in 10.0 mi West 6.9 mph - N/A   Clear
8:10 PM 37.4 °F 31.4 °F 17.8 °F 45% 30.02 in 10.0 mi West 8.1 mph - N/A   Scattered Clouds
8:35 PM 37.4 °F 32.1 °F 17.6 °F 45% 30.02 in 10.0 mi WNW 6.9 mph - N/A   Scattered Clouds
8:55 PM 37.2 °F 31.9 °F 17.4 °F 45% - 10.0 mi WNW 6.9 mph - N/A   Scattered Clouds
9:15 PM 37.6 °F 31.6 °F 17.1 °F 43% 30.04 in 10.0 mi West 8.1 mph - N/A   Mostly Cloudy
9:35 PM 37.6 °F 31.6 °F 16.5 °F 42% 30.04 in 10.0 mi WNW 8.1 mph - N/A   Mostly Cloudy
10:00 PM 37.4 °F 32.1 °F 16.3 °F 42% 30.04 in 10.0 mi WNW 6.9 mph - N/A   Mostly Cloudy
10:20 PM 37.4 °F 32.1 °F 16.3 °F 42% 30.05 in 10.0 mi West 6.9 mph - N/A   Overcast
10:40 PM 37.4 °F 32.1 °F 16.3 °F 42% 30.05 in 10.0 mi West 6.9 mph - N/A   Overcast
11:20 PM 37.4 °F 32.8 °F 15.8 °F 41% 30.05 in 10.0 mi West 5.8 mph - N/A   Overcast
11:45 PM 37.4 °F 30.8 °F 15.6 °F 41% 30.05 in 10.0 mi West 9.2 mph - N/A   Overcast